User: anonymous   Login
Location: Beuerbach
(48.1459°N, 10.9174°E)
Time: 23:32:20
(UTC+00:00)
Language:

IDEFIX/ARIANE 42P - Orbit

View from above orbital plane
View from above orbital plane
View from above satellite
View from above satellite

Ground track
Ground track

The orbit data is extracted from the following two-line orbital elements,

1 27422U 02021B   24204.41176767  .00000767  00000-0  31264-3 0  9992
2 27422  98.5275 141.3944 0012724 135.9094 224.3106 14.30178388158902
Epoch (UTC): 22 July 2024 09:52:56
Eccentricity: 0.0012724
inclination: 98.5275°
perigee height: 782 km
apogee height: 800 km
right ascension of ascending node: 141.3944°
argument of perigee: 135.9094°
revolutions per day: 14.30178388
mean anomaly at epoch: 224.3106°
orbit number at epoch: 15890

The dashed part of the orbit path shows where the satellite is in the earth's shadow,  

DLR